Location: *
(43.4667°N, 11.6833°E)
Time: 00:33:33
(UTC+00:00)

Cosmos 1461 - Pass Details

Date: 19 July 2019
Orbit: 526 x 641 km, 65.0° (Epoch: 20 August)

Event Time Altitude Azimuth Distance (km) Brightness Sun altitude
Rises 19:21:17 0° 323° (NW) 2,669 8.1 -5.7°
Reaches altitude 10° 19:23:28 10° 321° (NW) 1,779 7.0 -6.0°
Maximum altitude 19:27:24 65° 239° (WSW) 590 3.1 -6.6°
Drops below altitude 10° 19:31:23 10° 158° (SSE) 1,799 4.9 -7.2°
Enters shadow 19:32:11 - 156° (SSE) 2,121 5.3 -7.3°
